Powrót do katalogu

TITAN 34B AGENA R/B

AktywnyHEO
NORAD 9271·ROCKET BODY·🇺🇸 United States

Wystrzelony Aug 6, 1976 z Vandenberg Space Force Base

Loading…

Następne Przeloty (najbliższe 24 godziny)

TLE

ŚwieżeSource: Space-Track

Epoka: Sep 13, 2026, 15:30 UTC

1 09271U 76080B   26256.64652127  .00000033  00000-0  46816-2 0  9997
2 09271  63.9863 241.6190 6567317 288.1347  14.0537  2.62858328 68937

Śledź TITAN 34B AGENA R/B w czasie rzeczywistym z AllMySat

Download on the App Store